This is the latest recevied weather packets stored in our database for station/object 9M2IBR-1. If no packets are shown the sender has not sent any weather packets the latest 10 day(s).
| Time | Temp. | Humidity | Pressure | Rain* | Wind** | Luminosity | Snow |
|---|---|---|---|---|---|---|---|
| 1777723824 | 27.22° C | 91% | 1007.5 hPa | 0 mm | - | 0 W/m² | - |
| 1777721448 | 27.78° C | 90% | 1006.6 hPa | 0 mm | - | 0 W/m² | - |
| 1777720517 | 28.89° C | 89% | 1006.2 hPa | 0 mm | - | 0 W/m² | - |
| 1777719325 | 29.44° C | 87% | 1005.9 hPa | 0 mm | - | 10 W/m² | - |
| 1777716320 | 30.56° C | 83% | 1005.3 hPa | 0 mm | - | 37 W/m² | - |
| 1777714523 | 30.56° C | 82% | 1005.4 hPa | 0 mm | - | 54 W/m² | - |
| 1777713330 | 31.11° C | 81% | 1005.3 hPa | 0 mm | - | 70 W/m² | - |
| 1777713030 | 31.11° C | 81% | 1005.1 hPa | 0 mm | - | 94 W/m² | - |
| 1777711252 | 31.67° C | 79% | 1005.2 hPa | 0 mm | - | 182 W/m² | - |
| 1777709440 | 32.22° C | 76% | 1005.1 hPa | 0 mm | - | 274 W/m² | - |
| 1777708226 | 35° C | 69% | 1005.6 hPa | 0 mm | - | 695 W/m² | - |
| 1777706128 | 34.44° C | 70% | 1006.3 hPa | 0 mm | - | 706 W/m² | - |
| 1777704028 | 34.44° C | 70% | 1007 hPa | 0 mm | - | 720 W/m² | - |
| 1777703742 | 35° C | 70% | 1007.1 hPa | 0 mm | - | 722 W/m² | - |
| 1777702820 | 34.44° C | 71% | 1007.3 hPa | 0 mm | - | 739 W/m² | - |
| 1777702229 | 34.44° C | 71% | 1007.4 hPa | 0 mm | - | 738 W/m² | - |
| 1777700416 | 32.78° C | 75% | 1007.9 hPa | 0 mm | - | 335 W/m² | - |
| 1777700134 | 32.78° C | 74% | 1007.9 hPa | 0 mm | - | 246 W/m² | - |
| 1777698921 | 35° C | 67% | 1008.2 hPa | 0 mm | - | 629 W/m² | - |
| 1777697123 | 34.44° C | 68% | 1008.8 hPa | 0 mm | - | 549 W/m² | - |
| 1777695327 | 34.44° C | 67% | 1009.4 hPa | 0 mm | - | 676 W/m² | - |
| 1777690846 | 33.33° C | 71% | 1009.7 hPa | 0 mm | - | 817 W/m² | - |
| 1777690543 | 33.33° C | 70% | 1009.6 hPa | 0 mm | - | 823 W/m² | - |
| 1777690251 | 33.33° C | 71% | 1009.7 hPa | 0 mm | - | 845 W/m² | - |
| 1777688747 | 32.22° C | 74% | 1009.9 hPa | 0 mm | - | 608 W/m² | - |
* Rain latest hour (hover to see other rain measurements)
** Current wind speed in m/s (hover to see current wind gust speed)